Wind_Speed
25 29 32 33 36 38 38 37 35 34 36 37 39 40 41 42 42 41 41 42 43 42 41 40 40 41 41 41 42 43 43 44 45 46 48 46 42 38 37 37 32 33 35
27 29 32 39 40 36 36 36 36 34 35 36 37 37 37 38 39 39 40 39 39 40 40 41 41 42 41 40 41 42 42 42 42 43 44 43 40 37 39 41 37 35 36
27 29 37 41 36 32 33 33 33 33 35 37 37 36 35 34 34 35 35 35 35 35 36 38 40 41 41 41 42 42 43 43 42 43 45 43 39 39 39 40 37 37 37
29 34 37 36 34 35 38 38 38 36 35 36 37 37 37 37 37 36 36 37 37 37 36 37 39 40 42 44 44 44 45 45 44 45 45 45 42 40 37 35 38 38 30
29 32 32 31 32 36 38 40 44 44 42 40 39 39 40 40 40 40 39 38 38 39 39 40 41 43 45 45 45 46 47 47 46 46 44 42 41 37 34 35 37 33 28
33 34 35 34 31 31 31 32 36 39 41 43 43 42 42 42 42 41 40 40 40 40 40 40 41 43 44 44 45 47 48 47 46 47 47 44 38 34 33 32 32 25 26
35 37 33 30 28 29 31 32 34 36 38 41 43 44 44 44 45 44 43 42 41 41 40 41 42 42 43 43 42 43 44 44 46 47 45 42 40 35 30 30 30 30 29
30 31 32 33 33 34 35 35 34 33 34 37 39 41 43 44 44 45 46 45 44 43 43 42 43 42 42 41 41 41 42 44 48 48 45 40 37 31 27 28 30 34 35
28 32 34 34 34 36 38 38 35 35 35 36 37 39 40 42 43 44 45 45 45 45 45 44 42 42 41 40 41 39 35 36 39 42 40 34 29 23 22 25 28 30 34
30 31 31 31 32 34 35 36 35 35 36 37 37 37 38 39 39 40 41 42 41 41 42 42 42 42 41 40 37 31 29 29 28 26 26 28 25 28 26 25 26 29 31
32 33 34 34 34 34 37 37 37 39 39 38 37 37 37 36 37 37 37 38 39 39 40 41 42 42 38 32 27 25 24 22 20 20 21 22 22 27 30 30 32 34 32
39 39 39 39 37 35 36 37 36 38 40 39 37 38 37 35 33 33 34 34 33 34 37 37 37 35 32 30 26 19 20 21 20 23 24 25 27 31 32 30 28 26 23
43 45 44 43 44 42 39 39 39 36 36 37 37 38 37 35 31 30 30 30 30 30 32 33 32 31 27 28 23 21 21 20 18 19 16 16 19 27 26 24 20 17 13
47 49 47 46 48 48 45 41 40 39 35 34 35 36 36 35 31 29 29 29 28 24 24 25 25 22 18 20 22 23 22 21 23 22 17 15 19 18 18 17 15 14 16
50 51 50 50 49 50 49 46 44 41 38 33 32 33 34 35 31 28 28 26 21 18 18 20 17 17 18 16 16 21 23 23 22 18 15 14 15 12 11 14 15 16 18
50 52 53 53 53 52 49 47 48 44 40 37 32 30 33 35 31 27 26 22 18 16 13 15 12 11 12 14 15 17 16 18 18 15 14 14 14 12 12 13 15 16 17
62 65 63 58 57 55 52 50 49 44 41 38 35 31 33 35 32 27 25 24 20 14 11 14 13 12 10 7 8 11 16 17 17 16 16 15 13 14 13 13 14 15 15
67 71 68 62 57 56 58 55 50 45 41 39 37 31 31 32 32 28 24 24 21 18 13 13 14 15 13 10 10 12 14 17 18 18 15 15 15 16 15 14 15 14 12
72 73 72 69 66 64 66 66 61 51 42 40 38 32 32 30 31 28 24 23 22 20 15 16 16 17 17 14 12 13 15 15 16 17 17 15 14 13 13 13 12 11 11
73 74 76 73 71 71 70 68 68 60 50 44 40 37 34 31 31 29 26 23 22 21 18 18 19 21 23 21 15 11 10 10 12 12 11 10 10 10 10 10 10 10 9
79 80 77 75 77 77 75 74 68 62 54 50 46 41 39 35 30 28 28 26 21 19 18 18 20 20 22 20 18 15 13 11 10 11 12 13 11 10 10 10 11 11 11
79 77 72 69 71 74 74 72 66 62 60 54 47 40 38 34 27 28 29 28 21 19 17 15 16 15 13 15 18 20 15 9 8 11 14 15 13 11 10 11 12 11 10
77 66 58 59 63 65 62 61 60 62 58 55 52 46 38 35 31 33 31 30 23 18 15 12 11 9 7 8 12 15 16 12 11 11 12 12 14 13 11 11 11 10 9
56 56 58 60 65 64 58 52 50 60 59 54 50 46 45 35 34 36 34 30 24 20 18 14 12 12 10 10 12 13 15 14 13 11 12 13 14 13 11 10 10 9 9
53 50 52 58 63 61 56 47 38 51 58 56 54 47 41 38 35 35 35 32 26 23 23 19 16 14 13 12 13 14 15 15 15 15 13 11 11 11 10 9 9 10 9
50 52 53 53 54 54 52 45 37 37 50 57 51 50 50 43 38 38 36 35 30 26 25 22 20 17 15 14 15 14 15 16 17 15 13 13 14 13 11 9 10 11 10
Wind_Direction
303 301 301 296 302 304 300 293 287 282 279 278 278 279 279 279 280 278 278 277 277 278 277 275 271 271 275 279 278 278 280 281 282 284 284 282 282 284 279 278 278 274 272
300 303 306 301 301 298 296 295 294 292 288 285 283 283 282 280 279 279 280 280 280 279 276 274 273 274 277 278 279 280 282 284 285 285 284 285 282 282 281 281 282 277 274
292 299 308 305 297 296 295 292 291 293 295 294 291 288 286 284 284 284 285 285 284 282 279 276 276 278 279 279 279 280 282 284 283 286 286 284 284 283 278 278 277 274 273
295 305 308 307 294 296 300 297 295 295 296 295 293 291 288 286 285 286 285 286 287 286 284 281 281 284 286 287 285 284 283 283 283 283 283 282 283 281 272 270 277 271 262
295 302 306 307 300 295 298 298 298 299 298 295 293 292 291 289 288 288 287 286 287 288 287 287 287 287 287 287 287 288 288 286 282 282 282 279 278 274 265 269 276 262 249
304 307 309 308 306 307 308 303 298 295 293 291 288 286 286 287 288 287 286 285 284 286 286 286 287 287 285 284 282 284 285 285 284 283 282 283 276 268 266 265 269 262 243
312 312 310 310 311 310 309 309 309 309 304 296 291 288 285 283 283 284 285 285 285 286 285 286 289 291 290 287 284 281 282 282 281 282 282 281 280 271 262 259 265 264 253
309 313 318 322 326 325 327 327 323 318 311 305 299 296 293 289 287 285 285 284 284 287 288 288 289 289 289 286 283 280 279 279 276 274 275 277 273 267 258 262 263 265 256
323 326 325 327 330 329 329 331 332 330 326 319 311 306 303 298 293 291 290 289 287 286 286 288 288 287 287 285 285 281 274 273 273 270 265 264 263 261 256 261 264 263 250
325 320 322 326 325 323 321 327 332 332 332 327 319 315 308 302 297 294 294 294 293 290 287 286 285 285 286 284 281 273 270 274 273 265 253 252 246 252 253 255 258 253 257
317 318 323 323 321 319 315 318 319 323 326 324 323 324 317 305 297 293 292 293 293 289 285 284 284 287 285 279 275 273 265 262 255 250 239 233 231 241 248 261 259 260 265
316 314 312 310 308 306 305 309 313 315 314 318 321 324 322 313 304 299 295 291 290 290 289 289 289 289 282 268 268 244 248 237 228 229 216 212 218 237 246 244 241 248 255
305 303 304 307 307 305 304 308 311 310 308 313 318 323 323 319 310 303 300 296 291 293 293 293 295 294 286 266 254 228 233 216 201 200 211 218 219 225 239 245 246 248 243
299 302 305 305 304 304 305 305 305 305 305 309 315 320 322 317 313 306 303 304 299 290 286 290 290 285 272 246 222 214 207 186 185 193 212 238 252 253 258 252 241 239 245
298 300 301 300 300 298 299 301 302 301 300 302 308 315 319 316 309 306 305 308 307 298 289 291 287 271 251 239 213 208 216 222 217 218 225 242 249 247 253 253 250 250 255
293 295 297 297 298 296 296 299 300 300 299 296 301 308 312 313 307 305 307 311 311 306 300 294 293 289 272 242 235 224 236 239 232 228 233 235 235 238 238 244 254 258 261
295 297 300 298 297 295 295 296 297 297 296 293 294 302 306 308 304 299 304 307 303 297 305 292 277 273 272 228 222 235 237 236 233 233 233 239 244 244 241 243 251 257 262
295 296 298 294 293 290 289 293 289 288 286 286 288 293 295 297 293 291 293 297 292 289 295 291 282 273 269 261 254 245 238 235 233 233 233 234 236 240 244 248 249 252 257
292 291 294 293 290 289 286 286 286 280 274 273 278 282 283 287 286 283 287 286 282 284 291 290 291 280 273 269 254 251 247 246 240 235 235 233 234 235 234 234 239 248 254
293 294 295 290 287 291 289 283 279 273 266 261 266 270 273 275 277 274 276 278 279 276 278 284 289 285 281 276 263 255 253 244 243 241 230 218 211 217 232 237 237 239 246
294 295 295 292 291 292 290 286 279 266 257 254 260 263 258 261 267 268 265 266 269 265 267 275 282 282 276 261 246 239 245 252 248 232 218 216 224 236 231 226 229 241 259
296 296 295 295 296 294 288 280 270 257 247 246 249 248 245 249 251 254 256 259 257 254 256 268 277 279 267 241 232 230 231 230 211 204 210 221 231 219 227 236 242 255 276
296 294 292 294 298 301 299 287 263 247 239 234 235 235 232 237 245 247 244 246 249 249 249 252 262 254 215 213 227 220 214 216 212 209 226 227 212 219 236 240 240 257 276
291 292 294 297 299 300 304 304 271 245 240 227 223 230 234 227 241 243 237 235 238 241 239 236 234 219 207 217 226 211 206 214 222 225 208 203 211 232 244 232 241 259 276
295 296 295 299 300 302 304 307 285 249 239 225 225 223 219 216 228 235 226 223 230 236 230 223 219 207 202 208 215 212 214 221 226 219 216 228 239 250 245 239 253 265 288
298 300 299 297 296 297 299 299 296 265 236 222 225 224 226 215 223 229 220 217 222 228 223 216 214 211 201 211 221 217 217 222 222 223 231 242 245 248 248 247 260 276 305
Height
5883 5879 5875 5872 5868 5863 5860 5860 5860 5858 5855 5853 5851 5849 5846 5842 5840 5839 5837 5835 5832 5831 5829 5829 5828 5828 5826 5825 5823 5821 5821 5820 5818 5817 5816 5816 5816 5816 5817 5816 5816 5817 5817
5873 5870 5868 5865 5861 5857 5853 5850 5849 5848 5846 5844 5842 5839 5836 5833 5831 5828 5827 5825 5824 5821 5820 5818 5817 5817 5816 5815 5814 5812 5811 5810 5809 5806 5804 5805 5808 5807 5806 5805 5805 5806 5806
5865 5864 5861 5857 5854 5850 5847 5844 5842 5839 5835 5832 5830 5829 5827 5825 5822 5820 5818 5816 5814 5812 5810 5809 5807 5807 5806 5806 5805 5804 5802 5801 5800 5797 5795 5794 5796 5796 5797 5796 5795 5795 5796
5860 5858 5855 5851 5847 5843 5840 5837 5834 5832 5829 5825 5821 5819 5818 5815 5813 5812 5809 5806 5803 5801 5799 5799 5798 5796 5795 5794 5793 5791 5790 5790 5789 5788 5786 5785 5785 5785 5786 5787 5787 5786 5788
5854 5852 5850 5846 5841 5837 5834 5829 5825 5822 5819 5816 5812 5809 5807 5805 5803 5801 5799 5798 5795 5792 5790 5789 5787 5785 5784 5782 5781 5779 5778 5778 5777 5777 5777 5775 5774 5775 5776 5778 5778 5778 5779
5848 5845 5843 5838 5834 5830 5826 5822 5817 5813 5810 5806 5803 5800 5798 5795 5793 5792 5790 5789 5787 5784 5781 5779 5777 5774 5772 5771 5769 5767 5766 5765 5765 5765 5765 5765 5764 5765 5766 5768 5769 5769 5771
5839 5836 5834 5831 5828 5822 5818 5814 5810 5806 5801 5797 5793 5790 5787 5784 5783 5781 5780 5778 5776 5773 5770 5767 5764 5762 5760 5758 5757 5755 5754 5754 5754 5753 5753 5753 5753 5753 5756 5758 5760 5762 5764
5833 5828 5823 5820 5817 5813 5809 5805 5802 5798 5794 5789 5784 5779 5776 5773 5770 5768 5766 5765 5764 5761 5758 5755 5752 5750 5748 5746 5744 5743 5742 5741 5740 5740 5741 5742 5743 5744 5747 5749 5751 5753 5756
5825 5821 5817 5814 5810 5805 5801 5799 5795 5791 5786 5781 5775 5770 5766 5762 5759 5756 5754 5752 5751 5749 5746 5743 5740 5738 5737 5736 5733 5732 5730 5729 5728 5728 5730 5733 5736 5739 5740 5741 5742 5747 5749
5820 5816 5813 5809 5806 5803 5798 5794 5789 5785 5780 5774 5768 5764 5758 5752 5748 5746 5743 5740 5738 5736 5733 5731 5729 5727 5725 5724 5721 5720 5719 5719 5717 5718 5721 5725 5729 5730 5732 5734 5736 5738 5741
5813 5809 5806 5803 5800 5797 5792 5788 5784 5778 5773 5768 5762 5756 5751 5745 5740 5737 5734 5731 5727 5724 5722 5720 5716 5714 5713 5711 5709 5709 5709 5709 5710 5713 5716 5719 5722 5723 5724 5728 5731 5731 5733
5806 5802 5799 5796 5793 5789 5783 5779 5776 5770 5766 5761 5755 5749 5744 5738 5733 5729 5726 5723 5718 5715 5711 5708 5705 5703 5703 5702 5701 5701 5704 5706 5707 5711 5712 5713 5715 5719 5720 5721 5723 5724 5725
5798 5793 5790 5786 5782 5778 5774 5769 5766 5762 5758 5753 5747 5741 5736 5730 5726 5723 5720 5716 5712 5708 5704 5699 5696 5694 5694 5694 5695 5697 5699 5701 5703 5705 5707 5708 5711 5713 5715 5717 5718 5719 5722
5791 5785 5780 5776 5771 5766 5763 5760 5757 5753 5749 5743 5738 5733 5728 5724 5719 5716 5713 5710 5705 5701 5698 5694 5690 5688 5688 5688 5691 5693 5695 5695 5698 5700 5702 5705 5708 5709 5711 5712 5713 5716 5718
5779 5774 5768 5765 5761 5757 5753 5751 5748 5744 5740 5736 5732 5727 5722 5718 5713 5710 5707 5703 5698 5695 5693 5690 5686 5684 5685 5686 5687 5687 5689 5692 5694 5695 5698 5702 5704 5704 5705 5708 5710 5711 5712
5767 5762 5758 5754 5750 5746 5743 5741 5739 5734 5731 5727 5723 5720 5714 5711 5707 5704 5701 5698 5694 5690 5689 5687 5685 5682 5682 5682 5683 5685 5686 5688 5689 5692 5695 5698 5699 5699 5700 5703 5706 5709 5709
5752 5746 5744 5740 5735 5731 5728 5727 5725 5722 5718 5717 5714 5712 5707 5703 5701 5698 5695 5693 5690 5687 5686 5684 5684 5682 5681 5679 5680 5681 5682 5684 5686 5688 5691 5692 5693 5696 5698 5701 5703 5704 5704
5735 5730 5727 5723 5718 5715 5712 5712 5711 5710 5707 5706 5704 5701 5699 5696 5694 5692 5689 5687 5685 5682 5681 5680 5680 5680 5680 5679 5679 5679 5680 5681 5682 5684 5685 5687 5691 5695 5696 5698 5699 5700 5701
5717 5711 5707 5704 5700 5697 5696 5693 5693 5695 5695 5693 5692 5691 5689 5687 5686 5683 5683 5679 5678 5677 5674 5674 5674 5676 5677 5676 5677 5676 5677 5678 5679 5681 5683 5684 5687 5690 5692 5694 5695 5696 5697
5698 5690 5683 5679 5676 5672 5671 5671 5670 5673 5676 5677 5677 5679 5679 5677 5676 5675 5677 5673 5670 5671 5669 5668 5668 5669 5670 5670 5671 5672 5672 5674 5676 5678 5680 5682 5684 5687 5688 5690 5691 5692 5693
5672 5665 5659 5654 5651 5648 5644 5641 5642 5645 5651 5657 5659 5663 5667 5666 5665 5665 5668 5667 5663 5664 5664 5663 5663 5664 5665 5665 5666 5667 5669 5671 5674 5676 5678 5681 5683 5684 5685 5687 5689 5690 5690
5651 5642 5634 5629 5626 5621 5616 5613 5613 5617 5624 5633 5639 5645 5649 5651 5652 5654 5658 5661 5657 5656 5658 5657 5658 5659 5660 5662 5662 5663 5665 5669 5671 5673 5675 5678 5679 5681 5682 5683 5684 5686 5686
5628 5621 5613 5608 5603 5596 5587 5580 5580 5588 5597 5608 5618 5625 5631 5633 5639 5643 5647 5651 5651 5650 5652 5652 5653 5656 5658 5660 5660 5661 5663 5666 5669 5671 5672 5673 5676 5677 5678 5679 5680 5681 5682
5608 5601 5594 5587 5582 5574 5565 5556 5553 5560 5572 5585 5596 5607 5614 5619 5626 5631 5637 5642 5644 5644 5647 5647 5649 5653 5657 5660 5660 5660 5661 5663 5665 5667 5669 5671 5673 5674 5675 5676 5676 5677 5678
5593 5586 5578 5572 5565 5559 5551 5543 5536 5536 5546 5562 5573 5585 5597 5604 5612 5619 5626 5632 5636 5638 5641 5642 5645 5649 5653 5657 5659 5659 5660 5661 5662 5664 5665 5667 5669 5669 5671 5672 5672 5673 5673
5574 5568 5561 5554 5546 5540 5537 5532 5527 5523 5527 5543 5556 5569 5580 5590 5599 5607 5615 5622 5627 5631 5634 5637 5641 5645 5648 5652 5655 5657 5657 5658 5659 5661 5662 5664 5665 5666 5667 5668 5669 5668 5669